Location: Unspecified
(42.1900°N, 71.3291°W)
Time: 14:47:23
(UTC-04:00)

ISS - Visible Passes

Search period start: 25 September 2017 00:00
Search period end: 05 October 2017 00:00
Orbit: 401 x 407 km, 51.6° (Epoch: 26 September)

Date Brightness Start Highest point End Pass type
(mag) Time Alt. Az. Time Alt. Az. Time Alt. Az.
25 Sep -3.4 19:53:59 10° SSW 19:57:05 42° SE 19:57:34 39° ESE visible
26 Sep -2.4 19:02:15 10° S 19:04:53 23° SE 19:07:31 10° E visible
26 Sep -2.5 20:38:00 10° WSW 20:40:35 40° WNW 20:40:35 40° WNW visible
27 Sep -3.8 19:45:30 10° WSW 19:48:46 80° NW 19:50:42 23° NE visible
27 Sep -0.3 21:23:06 10° WNW 21:23:22 11° WNW 21:23:22 11° WNW visible
28 Sep -3.6 18:53:15 10° SW 18:56:26 53° SE 18:59:38 10° ENE visible
28 Sep -2.0 20:30:13 10° W 20:33:04 27° NNW 20:33:19 26° NNW visible
29 Sep -2.6 19:37:26 10° W 19:40:32 39° NNW 19:43:09 13° NE visible
29 Sep -0.4 21:15:28 10° NW 21:15:48 11° NW 21:15:48 11° NW visible
30 Sep -1.6 20:22:34 10° WNW 20:25:01 19° NNW 20:25:32 18° N visible
01 Oct -1.8 19:29:38 10° WNW 19:32:22 24° NNW 19:35:08 10° NE visible
01 Oct -0.4 21:07:36 10° NW 21:07:50 11° NW 21:07:50 11° NW visible
02 Oct -1.4 20:14:50 10° NW 20:16:59 16° N 20:17:26 16° N visible
03 Oct -1.5 19:21:55 10° WNW 19:24:16 18° N 19:26:38 10° NE visible
03 Oct -0.5 20:59:21 10° NW 20:59:37 11° NNW 20:59:37 11° NNW visible
04 Oct -1.5 20:06:49 10° NW 20:08:55 16° N 20:09:09 16° N visible
